Location: Alphen
(52.1351°N, 4.6549°E)
Time: 01:49:49
(UTC+00:00)

FALCON 9 DEB - Pass Details

Date: 27 January 2021
Orbit: 372 x 387 km, 53.0° (Epoch: 26 February)

Event Time Altitude Azimuth Distance (km) Brightness Sun altitude
Exits shadow 06:15:30 - 231° (SW) 1,650 5.7 -11.2°
Reaches altitude 10° 06:16:09 10° 229° (SW) 1,386 5.4 -11.1°
Maximum altitude 06:19:08 45° 154° (SSE) 520 3.8 -10.7°
Drops below altitude 10° 06:22:06 10° 80° (E) 1,384 6.8 -10.3°
Sets 06:24:11 0° 74° (ENE) 2,235 7.8 -10.0°
